Satellite-Ground Cal/Val Region Overpasses Predictions

Prediction of Satellite NPP Overpassing Cal/Val Region: PacNW

Region Location: (Latitude: 10.00, Longitude: 139.50) to (Latitude: 22.70, Longitude: 165.60).

Table of predicted overpasses for the next 14.0 days since TLE Epoch: 12/6/2019
Interval Starting Time Starting Location Ending Time Ending Location
1 12/07/2019 02:58:15 ( 10.00, 155.12) 12/07/2019 03:01:51 ( 22.68, 152.11)
2 12/07/2019 15:30:08 ( 22.69, 152.35) 12/07/2019 15:33:44 ( 10.01, 149.34)
3 12/08/2019 02:39:13 ( 10.00, 159.88) 12/08/2019 02:42:49 ( 22.68, 156.87)
4 12/08/2019 15:11:06 ( 22.69, 157.11) 12/08/2019 15:14:42 ( 10.01, 154.09)
5 12/09/2019 02:20:10 ( 10.00, 164.64) 12/09/2019 02:23:46 ( 22.68, 161.63)
6 12/09/2019 14:52:03 ( 22.69, 161.87) 12/09/2019 14:55:39 ( 10.01, 158.85)
7 12/10/2019 03:42:38 ( 10.01, 144.02) 12/10/2019 03:46:14 ( 22.69, 141.01)
8 12/10/2019 14:34:13 ( 18.47, 165.59) 12/10/2019 14:36:37 ( 10.01, 163.61)
9 12/10/2019 16:14:31 ( 22.68, 141.25) 12/10/2019 16:16:34 ( 15.47, 139.50)
10 12/11/2019 03:23:35 ( 10.01, 148.78) 12/11/2019 03:27:11 ( 22.69, 145.77)
11 12/11/2019 15:55:28 ( 22.68, 146.01) 12/11/2019 15:59:04 ( 10.00, 142.99)
12 12/12/2019 03:04:33 ( 10.01, 153.54) 12/12/2019 03:08:09 ( 22.69, 150.53)
13 12/12/2019 15:36:26 ( 22.68, 150.77) 12/12/2019 15:40:02 ( 10.00, 147.75)
14 12/13/2019 02:45:30 ( 10.01, 158.30) 12/13/2019 02:49:06 ( 22.69, 155.28)
15 12/13/2019 15:17:23 ( 22.68, 155.53) 12/13/2019 15:20:58 ( 10.06, 152.53)
16 12/14/2019 02:26:28 ( 10.01, 163.06) 12/14/2019 02:30:04 ( 22.70, 160.04)
17 12/14/2019 14:58:21 ( 22.68, 160.28) 12/14/2019 15:01:56 ( 10.06, 157.28)
18 12/15/2019 02:10:07 ( 19.47, 165.60) 12/15/2019 02:11:02 ( 22.70, 164.80)
19 12/15/2019 03:48:56 ( 10.03, 142.44) 12/15/2019 03:52:26 ( 22.36, 139.51)
20 12/15/2019 14:39:18 ( 22.68, 165.04) 12/15/2019 14:42:53 ( 10.05, 162.04)
21 12/15/2019 16:20:48 ( 22.67, 139.67) 12/15/2019 16:20:59 ( 22.02, 139.50)
22 12/16/2019 03:29:53 ( 10.03, 147.20) 12/16/2019 03:33:28 ( 22.65, 144.20)
23 12/16/2019 16:01:46 ( 22.66, 144.42) 12/16/2019 16:05:21 ( 10.04, 141.42)
24 12/17/2019 03:10:51 ( 10.03, 151.96) 12/17/2019 03:14:26 ( 22.66, 148.96)
25 12/17/2019 15:42:43 ( 22.66, 149.18) 12/17/2019 15:46:18 ( 10.04, 146.18)
26 12/18/2019 02:51:48 ( 10.03, 156.71) 12/18/2019 02:55:23 ( 22.66, 153.71)
27 12/18/2019 15:23:41 ( 22.66, 153.94) 12/18/2019 15:27:16 ( 10.04, 150.94)
28 12/19/2019 02:32:46 ( 10.04, 161.47) 12/19/2019 02:36:21 ( 22.66, 158.47)
29 12/19/2019 15:04:38 ( 22.66, 158.70) 12/19/2019 15:08:13 ( 10.04, 155.70)
30 12/20/2019 02:14:30 ( 12.81, 165.60) 12/20/2019 02:17:18 ( 22.67, 163.23)
31 12/20/2019 03:55:13 ( 10.05, 140.85) 12/20/2019 03:56:52 ( 15.87, 139.51)


NCC Satellite Cal/Val Overpasses Prediction Service
